Location: Unspecified
(0.0000°N, 0.0000°E)
Time: 18:48:55
(UTC+00:00)

deb Briz - Pass Details

Date: 21 February 2026
Orbit: 1949 x 2166 km, 64.8° (Epoch: 6 March)

Event Time Altitude Azimuth Distance (km) Brightness Sun altitude
Rises 02:50:40 0° 15° (NNE) 5,576 ? -49.6°
Reaches altitude 10° 02:56:56 10° 39° (NE) 4,618 ? -48.1°
Maximum altitude 03:02:18 14° 67° (ENE) 4,330 ? -46.8°
Drops below altitude 10° 03:07:42 10° 94° (E) 4,672 ? -45.5°
Sets 03:13:57 0° 117° (ESE) 5,690 ? -44.0°
